N4XWC Weather Reports


time (UTC)temp
C
wind
direction
speed
KPH
gust
KPH
rain 1hr
cm
rain 24hr
cm
rain mn
cm
humidity
%
barometer
mb
20260504212945 23 212 3.2 9.7 0.00 0.00 0.00 45 1013.4
20260504212443 23 268 19.3 19.3 0.00 0.00 0.00 46 1013.4
20260504212214 24 175 3.2 6.4 0.00 0.00 0.00 46 1013.4
20260504211944 24 280 9.7 16.1 0.00 0.00 0.00 45 1013.4
20260504211443 24 246 16.1 17.7 0.00 0.00 0.00 45 1013.3
20260504211215 24 256 4.8 9.7 0.00 0.00 0.00 45 1013.3
20260504210944 24 191 4.8 14.5 0.00 0.00 0.00 47 1013.3
20260504210443 24 210 0.0 3.2 0.00 0.00 0.00 45 1013.3
20260504210213 24 244 1.6 14.5 0.00 0.00 0.00 45 1013.3
20260504205943 24 256 3.2 16.1 0.00 0.00 0.00 46 1013.3
20260504205444 24 264 11.3 12.9 0.00 0.00 0.00 46 1013.3
20260504205215 24 227 3.2 3.2 0.00 0.00 0.00 46 1013.3
20260504204943 24 193 0.0 9.7 0.00 0.00 0.00 46 1013.3
20260504204444 24 224 3.2 3.2 0.00 0.00 0.00 48 1013.4
20260504204213 24 200 1.6 8.0 0.00 0.00 0.00 46 1013.4
20260504203943 24 246 3.2 14.5 0.00 0.00 0.00 47 1013.4
20260504203445 24 243 3.2 3.2 0.00 0.00 0.00 47 1013.4
20260504203214 24 284 4.8 4.8 0.00 0.00 0.00 47 1013.4
20260504202944 24 196 6.4 9.7 0.00 0.00 0.00 46 1013.6
20260504202444 24 213 1.6 4.8 0.00 0.00 0.00 47 1013.6
20260504202213 24 229 3.2 3.2 0.00 0.00 0.00 48 1013.6
20260504201945 24 223 3.2 8.0 0.00 0.00 0.00 47 1013.6
20260504201445 24 216 6.4 14.5 0.00 0.00 0.00 48 1013.6
20260504201215 24 184 1.6 1.6 0.00 0.00 0.00 49 1013.6
20260504200943 24 244 3.2 9.7 0.00 0.00 0.00 49 1013.6
20260504200443 24 206 0.0 6.4 0.00 0.00 0.00 49 1013.6
20260504200215 24 222 3.2 4.8 0.00 0.00 0.00 49 1013.6
20260504195943 24 212 1.6 6.4 0.00 0.00 0.00 49 1013.9
20260504195444 24 192 1.6 4.8 0.00 0.00 0.00 50 1013.9
20260504195214 24 213 3.2 4.8 0.00 0.00 0.00 51 1013.9
20260504194944 24 206 0.0 3.2 0.00 0.00 0.00 49 1013.9
20260504194444 24 206 4.8 4.8 0.00 0.00 0.00 48 1014.2
20260504194214 23 195 0.0 1.6 0.00 0.00 0.00 47 1014.2
20260504193945 23 208 0.0 1.6 0.00 0.00 0.00 49 1014.2
20260504193443 23 171 0.0 1.6 0.00 0.00 0.00 50 1014.2
20260504193216 23 215 0.0 3.2 0.00 0.00 0.00 51 1014.2
20260504192944 23 169 3.2 9.7 0.00 0.00 0.00 48 1014.4
20260504192444 23 165 3.2 6.4 0.00 0.00 0.00 50 1014.4
20260504192214 23 205 0.0 9.7 0.00 0.00 0.00 52 1014.4
20260504191946 23 240 4.8 9.7 0.00 0.00 0.00 52 1014.4
20260504191445 23 205 3.2 4.8 0.00 0.00 0.00 52 1014.7
20260504191214 23 270 0.0 6.4 0.00 0.00 0.00 52 1014.7
20260504190943 23 160 3.2 8.0 0.00 0.00 0.00 55 1014.7
20260504190446 23 148 0.0 1.6 0.00 0.00 0.00 52 1014.7
20260504190215 23 216 0.0 4.8 0.00 0.00 0.00 52 1014.7
20260504185944 23 215 1.6 3.2 0.00 0.00 0.00 52 1014.8
20260504185443 23 186 4.8 9.7 0.00 0.00 0.00 53 1014.8
20260504185214 23 208 4.8 4.8 0.00 0.00 0.00 53 1014.8
20260504184943 23 209 3.2 9.7 0.00 0.00 0.00 53 1014.8
20260504184444 23 198 0.0 8.0 0.00 0.00 0.00 52 1014.9
20260504184216 23 202 4.8 4.8 0.00 0.00 0.00 53 1014.9
20260504183943 23 216 0.0 1.6 0.00 0.00 0.00 55 1014.9
20260504183444 23 160 0.0 4.8 0.00 0.00 0.00 50 1014.9
20260504183213 23 193 4.8 6.4 0.00 0.00 0.00 54 1014.9
20260504182945 23 210 3.2 4.8 0.00 0.00 0.00 51 1015.2
20260504182443 23 270 1.6 8.0 0.00 0.00 0.00 52 1015.2
20260504182216 23 250 4.8 4.8 0.00 0.00 0.00 53 1015.2
20260504181944 23 302 3.2 8.0 0.00 0.00 0.00 54 1015.2
20260504181443 23 263 6.4 6.4 0.00 0.00 0.00 53 1015.3
20260504181214 23 205 8.0 9.7 0.00 0.00 0.00 54 1015.3
20260504180944 23 155 4.8 4.8 0.00 0.00 0.00 54 1015.3
20260504180443 23 193 3.2 6.4 0.00 0.00 0.00 54 1015.3
20260504180215 23 226 0.0 1.6 0.00 0.00 0.00 54 1015.3
20260504175944 23 236 3.2 4.8 0.00 0.00 0.00 53 1015.5
20260504175443 23 253 1.6 4.8 0.00 0.00 0.00 53 1015.5
20260504175216 23 274 9.7 9.7 0.00 0.00 0.00 53 1015.5
20260504174944 23 250 3.2 12.9 0.00 0.00 0.00 52 1015.5
20260504174443 23 241 0.0 0.0 0.00 0.00 0.00 52 1015.6
20260504174214 23 241 0.0 3.2 0.00 0.00 0.00 52 1015.6
20260504173943 23 241 1.6 1.6 0.00 0.00 0.00 52 1015.6
20260504173445 23 232 6.4 9.7 0.00 0.00 0.00 52 1015.6
20260504173215 23 212 1.6 3.2 0.00 0.00 0.00 52 1015.6
20260504172944 23 264 8.0 8.0 0.00 0.00 0.00 52 1015.7
20260504172444 23 209 8.0 11.3 0.00 0.00 0.00 53 1015.7
20260504172213 23 258 0.0 3.2 0.00 0.00 0.00 52 1015.7
20260504171944 23 256 0.0 4.8 0.00 0.00 0.00 51 1015.7
20260504171444 23 237 0.0 6.4 0.00 0.00 0.00 54 1015.9
20260504171213 23 282 3.2 8.0 0.00 0.00 0.00 53 1015.9
20260504170943 23 287 1.6 3.2 0.00 0.00 0.00 51 1015.9
20260504170444 23 192 0.0 6.4 0.00 0.00 0.00 53 1015.9
20260504170215 22 268 11.3 11.3 0.00 0.00 0.00 52 1015.9
20260504160445 21 237 3.2 8.0 0.00 0.00 0.00 53 1016.9
20260504160214 21 272 6.4 6.4 0.00 0.00 0.00 54 1016.9
20260504150943 19 247 3.2 3.2 0.00 0.00 0.00 59 1017.0
20260504150444 19 254 0.0 1.6 0.00 0.00 0.00 60 1017.0
20260504150214 19 223 1.6 4.8 0.00 0.00 0.00 61 1017.0
20260504141214 16 265 6.4 16.1 0.00 0.00 0.00 65 1017.4
20260504140944 16 199 3.2 8.0 0.00 0.00 0.00 65 1017.4
20260504140444 16 224 1.6 8.0 0.00 0.00 0.00 65 1017.4
20260504140213 16 219 3.2 9.7 0.00 0.00 0.00 65 1017.4
20260504130444 13 206 1.6 4.8 0.00 0.00 0.00 76 1017.8
20260504130218 13 210 0.0 3.2 0.00 0.00 0.00 77 1017.8
20260504120213 11 212 1.6 1.6 0.00 0.00 0.00 79 1017.3
20260504110444 10 179 0.0 1.6 0.00 0.00 0.00 82 1016.7
20260504110213 10 219 0.0 1.6 0.00 0.00 0.00 82 1016.7
20260504100443 9 198 0.0 1.6 0.00 0.00 0.00 89 1017.0
20260504100214 9 215 0.0 0.0 0.00 0.00 0.00 89 1017.0
20260504081945 12 243 1.6 1.6 0.00 0.00 0.00 70 1016.4
20260504081444 12 247 0.0 1.6 0.00 0.00 0.00 68 1016.5
20260504081216 12 234 0.0 1.6 0.00 0.00 0.00 68 1016.5
20260504080943 12 239 1.6 3.2 0.00 0.00 0.00 66 1016.5
20260504080443 12 217 1.6 1.6 0.00 0.00 0.00 65 1016.5
20260504080215 13 247 0.0 3.2 0.00 0.00 0.00 65 1016.5
20260504070214 12 223 3.2 4.8 0.00 0.00 0.00 66 1016.9
20260504060213 14 169 1.6 3.2 0.00 0.00 0.00 58 1017.4
20260504050443 14 244 0.0 3.2 0.00 0.00 0.00 60 1018.0
20260504050213 14 248 0.0 3.2 0.00 0.00 0.00 60 1018.0
20260504045943 14 239 0.0 3.2 0.00 0.00 0.00 61 1018.0
20260504045443 14 244 1.6 4.8 0.00 0.00 0.00 62 1018.0
20260504045215 14 237 1.6 3.2 0.00 0.00 0.00 62 1018.0
20260504044944 14 241 3.2 4.8 0.00 0.00 0.00 62 1018.0
20260504044444 14 248 3.2 3.2 0.00 0.00 0.00 61 1018.0
20260504044215 14 246 0.0 3.2 0.00 0.00 0.00 60 1018.0
20260504043944 14 232 0.0 1.6 0.00 0.00 0.00 60 1018.0
20260504043444 14 208 0.0 0.0 0.00 0.00 0.00 60 1018.0
20260504043215 14 208 0.0 0.0 0.00 0.00 0.00 59 1018.0
20260504042944 15 208 0.0 0.0 0.00 0.00 0.00 58 1018.0
20260504042443 15 215 1.6 1.6 0.00 0.00 0.00 58 1018.0
20260504042215 15 226 0.0 0.0 0.00 0.00 0.00 58 1018.0
20260504041944 15 226 0.0 0.0 0.00 0.00 0.00 58 1018.0
20260504041444 15 229 0.0 0.0 0.00 0.00 0.00 57 1018.1
20260504041216 15 224 0.0 1.6 0.00 0.00 0.00 57 1018.1
20260504040944 15 224 0.0 0.0 0.00 0.00 0.00 57 1018.1
20260504040443 15 253 0.0 1.6 0.00 0.00 0.00 55 1018.1
20260504040213 15 253 0.0 1.6 0.00 0.00 0.00 55 1018.1
20260504035944 15 258 1.6 3.2 0.00 0.00 0.00 55 1018.1
20260504035444 15 271 3.2 3.2 0.00 0.00 0.00 55 1018.1
20260504035215 15 256 1.6 3.2 0.00 0.00 0.00 54 1018.1
20260504034944 16 254 1.6 4.8 0.00 0.00 0.00 54 1018.1
20260504034443 16 256 3.2 3.2 0.00 0.00 0.00 54 1018.2
20260504034214 16 261 1.6 3.2 0.00 0.00 0.00 54 1018.2
20260504033944 16 282 1.6 4.8 0.00 0.00 0.00 54 1018.2
20260504033444 16 261 3.2 4.8 0.00 0.00 0.00 53 1018.2
20260504033215 16 272 4.8 4.8 0.00 0.00 0.00 53 1018.2
20260504032943 16 270 3.2 4.8 0.00 0.00 0.00 53 1018.5
20260504032444 16 271 4.8 4.8 0.00 0.00 0.00 53 1018.5
20260504032214 16 284 1.6 6.4 0.00 0.00 0.00 53 1018.5
20260504031945 16 299 1.6 4.8 0.00 0.00 0.00 53 1018.5
20260504031443 16 284 4.8 4.8 0.00 0.00 0.00 52 1018.5
20260504031215 16 291 4.8 8.0 0.00 0.00 0.00 52 1018.5
20260504030943 16 250 3.2 6.4 0.00 0.00 0.00 52 1018.5
20260504030444 16 264 4.8 4.8 0.00 0.00 0.00 51 1018.5
20260504030213 16 263 0.0 4.8 0.00 0.00 0.00 51 1018.5
20260504025944 16 278 1.6 6.4 0.00 0.00 0.00 51 1018.5
20260504025444 16 260 1.6 8.0 0.00 0.00 0.00 50 1018.5
20260504025215 16 261 1.6 6.4 0.00 0.00 0.00 50 1018.5
20260504024944 16 294 3.2 11.3 0.00 0.00 0.00 50 1018.5
20260504024443 16 313 3.2 4.8 0.00 0.00 0.00 50 1018.2
20260504024215 16 274 4.8 8.0 0.00 0.00 0.00 50 1018.2
20260504023943 16 265 3.2 4.8 0.00 0.00 0.00 50 1018.2
20260504023445 16 298 1.6 4.8 0.00 0.00 0.00 50 1018.2
20260504023214 16 272 3.2 6.4 0.00 0.00 0.00 50 1018.2
20260504022944 16 256 3.2 6.4 0.00 0.00 0.00 50 1018.0
20260504022444 16 264 3.2 8.0 0.00 0.00 0.00 50 1018.0
20260504022214 16 248 1.6 6.4 0.00 0.00 0.00 50 1018.0
20260504021943 16 277 4.8 4.8 0.00 0.00 0.00 50 1018.0
20260504021445 16 270 3.2 6.4 0.00 0.00 0.00 50 1018.0
20260504021215 16 272 1.6 4.8 0.00 0.00 0.00 50 1018.0
20260504020944 16 275 1.6 6.4 0.00 0.00 0.00 50 1018.0
20260504020444 16 282 1.6 4.8 0.00 0.00 0.00 50 1018.0
20260504020214 16 325 1.6 4.8 0.00 0.00 0.00 50 1018.0
20260504020007 16 271 3.2 8.0 0.00 0.00 0.00 50 1018.0
20260504015508 16 254 3.2 3.2 0.00 0.00 0.00 51 1017.9
20260504015214 16 272 3.2 4.8 0.00 0.00 0.00 50 1017.9
20260504015008 16 275 3.2 4.8 0.00 0.00 0.00 50 1017.9
20260504014508 16 281 1.6 4.8 0.00 0.00 0.00 50 1017.9
20260504014214 16 278 3.2 6.4 0.00 0.00 0.00 50 1017.7
20260504014008 16 280 3.2 4.8 0.00 0.00 0.00 51 1017.7
20260504013507 16 281 3.2 4.8 0.00 0.00 0.00 51 1017.7
20260504013214 16 281 4.8 4.8 0.00 0.00 0.00 50 1017.7
20260504013008 16 256 1.6 4.8 0.00 0.00 0.00 50 1017.7
20260504012508 16 251 0.0 4.8 0.00 0.00 0.00 51 1017.6
20260504012214 16 251 3.2 3.2 0.00 0.00 0.00 51 1017.6
20260504012007 16 264 1.6 4.8 0.00 0.00 0.00 51 1017.6
20260504011508 16 268 1.6 3.2 0.00 0.00 0.00 51 1017.6
20260504011214 16 263 1.6 3.2 0.00 0.00 0.00 51 1017.8
20260504011008 16 251 3.2 3.2 0.00 0.00 0.00 51 1017.8
20260504010508 16 258 1.6 1.6 0.00 0.00 0.00 51 1017.8
20260504010213 16 253 0.0 3.2 0.00 0.00 0.00 51 1017.8
20260504010008 16 257 3.2 3.2 0.00 0.00 0.00 51 1017.8
20260504005508 16 264 3.2 3.2 0.00 0.00 0.00 51 1017.7
20260504005216 16 267 1.6 3.2 0.00 0.00 0.00 51 1017.7
20260504005008 16 267 3.2 3.2 0.00 0.00 0.00 51 1017.7
20260504004509 16 265 1.6 3.2 0.00 0.00 0.00 50 1017.7
20260504004214 16 268 1.6 3.2 0.00 0.00 0.00 50 1017.5
20260504004008 16 289 1.6 3.2 0.00 0.00 0.00 50 1017.5
20260504003508 16 256 1.6 3.2 0.00 0.00 0.00 50 1017.5
20260504003215 16 263 1.6 3.2 0.00 0.00 0.00 49 1017.5
20260504003008 16 278 1.6 3.2 0.00 0.00 0.00 49 1017.5
20260504002509 17 285 1.6 3.2 0.00 0.00 0.00 49 1017.4
20260504002215 17 288 3.2 3.2 0.00 0.00 0.00 49 1017.4
20260504002008 17 294 0.0 1.6 0.00 0.00 0.00 49 1017.4
20260504001507 17 284 1.6 3.2 0.00 0.00 0.00 49 1017.4
20260504001248 17 298 1.6 1.6 0.00 0.00 0.00 49 1017.6
20260504001214 17 298 1.6 1.6 0.00 0.00 0.00 49 1017.6
20260504001008 17 291 0.0 3.2 0.00 0.00 0.00 48 1017.6
20260504000508 17 282 0.0 1.6 0.00 0.00 0.00 47 1017.6
20260504000215 17 265 3.2 3.2 0.00 0.00 0.00 47 1017.6
20260504000008 17 263 3.2 3.2 0.00 0.00 0.00 48 1017.6
20260503235507 18 281 0.0 1.6 0.00 0.00 0.00 48 1017.6
20260503235214 18 288 0.0 1.6 0.00 0.00 0.00 46 1017.6
20260503235008 18 288 3.2 3.2 0.00 0.00 0.00 47 1017.6
20260503234507 18 281 1.6 3.2 0.00 0.00 0.00 46 1017.6
20260503234215 18 289 1.6 1.6 0.00 0.00 0.00 46 1017.6
20260503234009 18 289 0.0 1.6 0.00 0.00 0.00 46 1017.6
20260503233508 18 282 3.2 4.8 0.00 0.00 0.00 45 1017.6
20260503233214 18 295 0.0 1.6 0.00 0.00 0.00 45 1017.6
20260503233008 18 298 1.6 8.0 0.00 0.00 0.00 45 1017.6
20260503232510 18 264 0.0 1.6 0.00 0.00 0.00 43 1017.6
20260503232214 18 311 4.8 4.8 0.00 0.00 0.00 43 1017.6
20260503232008 18 305 3.2 8.0 0.00 0.00 0.00 44 1017.6
20260503231508 18 292 1.6 8.0 0.00 0.00 0.00 42 1017.6
20260503231214 18 302 4.8 4.8 0.00 0.00 0.00 43 1017.5
20260503231007 18 319 1.6 4.8 0.00 0.00 0.00 43 1017.5
20260503230509 18 308 1.6 1.6 0.00 0.00 0.00 43 1017.5
20260503230214 19 309 6.4 6.4 0.00 0.00 0.00 43 1017.5
20260503230009 19 272 1.6 4.8 0.00 0.00 0.00 43 1017.5
20260503225508 19 282 1.6 4.8 0.00 0.00 0.00 42 1017.6
20260503225215 19 294 0.0 1.6 0.00 0.00 0.00 41 1017.6
20260503225007 19 284 4.8 6.4 0.00 0.00 0.00 42 1017.6
20260503224508 19 291 3.2 6.4 0.00 0.00 0.00 42 1017.6
20260503224214 19 229 1.6 4.8 0.00 0.00 0.00 44 1017.7
20260503224007 19 0 3.2 3.2 0.00 0.00 0.00 42 1017.7
20260503223508 19 318 0.0 1.6 0.00 0.00 0.00 41 1017.7
20260503223214 19 280 0.0 0.0 0.00 0.00 0.00 41 1017.7
20260503223008 19 278 0.0 3.2 0.00 0.00 0.00 41 1017.7
20260503222509 19 320 3.2 3.2 0.00 0.00 0.00 42 1017.9
20260503222214 19 335 1.6 6.4 0.00 0.00 0.00 42 1017.9
20260503222009 19 329 1.6 4.8 0.00 0.00 0.00 41 1017.9
20260503221509 19 330 4.8 4.8 0.00 0.00 0.00 40 1017.9
20260503221217 19 20 6.4 8.0 0.00 0.00 0.00 40 1017.9
20260503221008 19 6 6.4 6.4 0.00 0.00 0.00 42 1017.9
20260503220508 19 312 1.6 4.8 0.00 0.00 0.00 42 1017.9
20260503220215 19 313 6.4 9.7 0.00 0.00 0.00 44 1017.9
20260503220009 19 350 4.8 11.3 0.00 0.00 0.00 43 1017.9
20260503215509 19 295 0.0 4.8 0.00 0.00 0.00 40 1018.1
20260503215214 19 27 3.2 11.3 0.00 0.00 0.00 40 1018.1
20260503215008 19 313 0.0 4.8 0.00 0.00 0.00 41 1018.1
20260503214508 19 281 0.0 1.6 0.00 0.00 0.00 41 1018.1
20260503214215 20 0 4.8 9.7 0.00 0.00 0.00 41 1018.2
20260503214009 20 260 9.7 11.3 0.00 0.00 0.00 41 1018.2
20260503213509 20 285 1.6 6.4 0.00 0.00 0.00 44 1018.2
20260503213214 20 0 1.6 3.2 0.00 0.00 0.00 40 1018.2
20260503213008 20 6 6.4 9.7 0.00 0.00 0.00 41 1018.2